Home > Weather > Larnaca > Past weeks

Flag for Cyprus Past Weather in Larnaca, Cyprus — Yesterday and Last 2 Weeks

Now
90 °F

Passing clouds.


Feels Like: 93 °F
Forecast: 70 / 92 °F
Wind: 24 mph from Southwest

Location: Larnaca Airport

Current Time: Jun 27, 2016 at 4:17:23 PM

Latest Report: Jun 27, 2016 at 3:30 PM


Visibility: N/A

Pressure: 29.68 "Hg

Humidity: 49%

Dew Point: 68 °F

Location of LarnacaLocation

Past Weather in Larnaca — Graph

°F

Larnaca Temperature Yesterday

Maximum temperature yesterday: 93 °F (at 4:30 PM)
Minimum temperature yesterday: 75 °F (at 4:30 AM)
Average temperature yesterday: 85 °F

High & Low Weather Summary for the Past Weeks

 TemperatureHumidityPressure
High100 °F (Jun 20, 10:30 AM)100% (Jun 15, 2:30 AM)29.95 "Hg (Jun 15, 2:30 AM)
Low66 °F (Jun 13, 4:00 AM)18% (Jun 20, 9:00 AM)29.62 "Hg (Jun 24, 7:30 PM)
Average84 °F54%29.75 "Hg
* Reported Jun 12 3:00 PM — Jun 27 3:00 PM, Larnaca, Weather by CustomWeather, © 2016

Note: Actual official high and low records may vary slightly from our data, if they occured in-between our weather recording intervals... More about our weather records

Advertising

Larnaca Weather History for the Previous 24 Hours

Scroll right to see more
 ConditionsComfort  
Time TempWeatherWind HumidityBarometerVisibility
3:00 PM
Mon, Jun 27
90 °FPassing clouds.25 mph52%29.68 "HgN/A
2:30 PM93 °FPassing clouds.26 mph41%29.68 "HgN/A
2:00 PM93 °FPassing clouds.25 mph39%29.68 "HgN/A
1:30 PM91 °FPassing clouds.25 mph46%29.68 "HgN/A
1:00 PM91 °FPassing clouds.24 mph44%29.71 "HgN/A
12:30 PM91 °FPassing clouds.24 mph38%29.71 "HgN/A
12:00 PM91 °FPassing clouds.24 mph38%29.71 "HgN/A
11:30 AM93 °FPassing clouds.17 mph34%29.71 "HgN/A
11:00 AM88 °FPassing clouds.8 mph46%29.74 "HgN/A
10:30 AM86 °FPassing clouds.6 mph55%29.74 "HgN/A
10:00 AM86 °FSunny.7 mph62%29.74 "Hg10 mi
9:30 AM84 °FPassing clouds.6 mph62%29.74 "HgN/A
9:00 AM84 °FPassing clouds.6 mph58%29.77 "HgN/A
8:30 AM84 °FPassing clouds.5 mph58%29.77 "HgN/A
8:00 AM86 °FPassing clouds.6 mph49%29.77 "HgN/A
7:30 AM82 °FSunny.9 mph48%29.77 "Hg10 mi
7:00 AM81 °FSunny.13 mph51%29.77 "Hg10 mi
6:30 AM79 °FClear.12 mph58%29.74 "Hg10 mi
6:00 AM77 °FClear.8 mph61%29.74 "Hg10 mi
5:30 AM79 °FClear.9 mph58%29.74 "Hg10 mi
5:00 AM79 °FClear.12 mph61%29.74 "Hg10 mi
4:30 AM79 °FClear.14 mph61%29.74 "Hg10 mi
4:00 AM81 °FClear.14 mph54%29.74 "Hg10 mi
3:30 AM81 °FClear.15 mph51%29.74 "Hg10 mi
3:00 AM81 °FClear.12 mph48%29.74 "Hg10 mi
2:30 AM82 °FClear.13 mph40%29.74 "Hg10 mi
2:00 AM82 °FClear.12 mph37%29.74 "Hg10 mi
1:30 AM84 °FPassing clouds.12 mph33%29.74 "HgN/A
1:00 AM84 °FClear.9 mph29%29.74 "Hg10 mi
12:30 AM84 °FClear.12 mph27%29.77 "Hg10 mi
12:00 AM84 °FClear.9 mph27%29.77 "Hg10 mi
11:30 PM
Sun, Jun 26
86 °FClear.8 mph25%29.77 "Hg10 mi
11:00 PM86 °FClear.8 mph25%29.77 "Hg10 mi
10:30 PM86 °FClear.9 mph25%29.77 "Hg10 mi
10:00 PM86 °FClear.9 mph24%29.77 "Hg10 mi
9:30 PM86 °FClear.5 mph43%29.77 "Hg10 mi
9:00 PM84 °FSunny.6 mph55%29.77 "Hg10 mi
8:30 PM86 °FSunny.7 mph49%29.77 "Hg10 mi
8:00 PM86 °FSunny.6 mph55%29.77 "Hg10 mi
7:30 PM86 °FSunny.9 mph55%29.74 "Hg10 mi
7:00 PM90 °FPassing clouds.6 mph52%29.74 "HgN/A
6:30 PM90 °FSunny.12 mph52%29.74 "Hg10 mi
6:00 PM91 °FSunny.9 mph46%29.74 "Hg10 mi
5:30 PM91 °FPassing clouds.10 mph46%29.74 "HgN/A
5:00 PM91 °FSunny.10 mph46%29.74 "Hg10 mi
4:30 PM93 °FSunny.12 mph44%29.74 "Hg10 mi
4:00 PM90 °FPassing clouds.10 mph59%29.77 "HgN/A
Weather by CustomWeather, © 2016

See weather overviewHow to use our weather pages